Weather in derevnya Pyal'ma

Russia / Republic of Karelia     62°24′05″N   35°53′24″E
temp.,
°C
wind,
m/s
gust,
m/s
humid.,
%
clouds,
%
prec.,
mm/h
press.,
hPa
HPBL,
m
27 july, tue
tue2700:00+14ene2571100 0.0 1020171
03:00+12ene2567100 0.0 1021107
06:00+12ene255991 0.0 1021154
09:00+17ne1242100 0.0 1021495
12:00+22n23340 0.0 10201491
15:00+24nnw23335 0.0 10191993
18:00+23wnw01345 0.0 1018689
21:00+16ese22595 0.0 101811
28 july, wed
wed2800:00+13ese22620 0.0 101819
03:00+11ese22665 0.0 101734
06:00+14se13635 0.0 101688
09:00+20ssw24425 0.0 1014497
12:00+24sw34385 0.0 1012885
15:00+25sw34425 0.0 1010998
18:00+25s224430 0.0 1008635
21:00+16w248685 0.8 100754
29 july, thu
thu2900:00+16ssw1185100 1.0 100611
03:00+15nnw1189100 1.0 100411
06:00+16sse229295 0.3 100365
09:00+17ssw258790 0.6 1002239
12:00+22ssw455978 0.1 1001765
15:00+23sw4654100 0.2 1000983
18:00+20sw3867100 0.4 998798
21:00+16sw2597100 2.3 997131
30 july, fri
fri3000:00+16ssw2597100 0.4 997179
03:00+15sw399927 0.6 997333
06:00+15sw389757 0.0 997325
09:00+18wsw3682100 0.0 998595
12:00+21sw4869100 0.9 9981395
15:00+23ssw684533 1.1 9981987
18:00+22sw584932 0.0 9981945
21:00+18sw4116096 0.1 997558
31 july, sat
sat3100:00+14ssw31190100 0.5 997281
03:00+13s3796100 1.5 997158
06:00+14sse379598 0.6 996212
09:00+18s51073100 1.1 994904
12:00+14s41092100 1.1 994829
15:00+14s51095100 3.1 993872
18:00+16ssw5119344 1.1 991832
21:00+15sw411948 3.2 991530